Regional Weather Roundup
Issued by NWS

Home | Current Version | Previous Version | Text Only | Print | Product List | Glossary On
Versions: 1 2 3 4 5 6 7 8 9 10 11 12 13 14 15 16 17 18 19 20 21 22 23 24 25 26 27 28 29 30 31 32 33 34 35 36 37 38 39 40 41 42 43 44 45 46 47 48 49 50
000
ASUS46 KSTO 300315
RWRCA

NORTHERN AND CENTRAL CA REGIONAL WEATHER ROUNDUP
NATIONAL WEATHER SERVICE SACRAMENTO CA
800 PM PDT WED MAR 29 2017

NOTE: FAIR INDICATES FEW OR NO CLOUDS BELOW 12,000 FEET WITH NO
SIGNIFICANT WEATHER AND/OR OBSTRUCTIONS TO VISIBILITY.

CAZ001-003-300400-
NORTHWEST AREA

CITY           SKY/WX    TMP DP  RH WIND       PRES   REMARKS
CRESCENT CITY  RAIN      53  53 100 S13       30.13S FOG
UKIAH          CLOUDY    63  44  50 NE7       30.14R
$$

CAZ006-505>513-300400-
BAY AREA

CITY           SKY/WX    TMP DP  RH WIND       PRES   REMARKS
SANTA ROSA     CLEAR     62  53  72 SE8       30.09S
SAN RAFAEL     N/A       59  MM  MM MISG
NAPA           PTCLDY    60  52  74 W12       30.10F
CONCORD        MOCLDY    66  50  56 W8        30.10S
OAKLAND CITY   N/A      MM  MM  MM MISG
OAKLAND        MOCLDY    60  55  83 W15       30.13S
SAN FRAN CITY  N/A       56  MM  82 MISG
SAN FRAN ARPT  PTCLDY    56  50  80 W22G29    30.14S
LIVERMORE      PTCLDY    59  50  72 NW8       30.11S
HAYWARD        PTCLDY    58  50  75 W12       30.13S
REDWOOD CITY   N/A       59  MM  63 MISG
MOFFETT ARPT   CLEAR     59  50  72 N8        30.14R
SAN JOSE ARPT  PTCLDY    60  50  69 NW13      30.14R
$$
CAZ034-037-514>518-300400-
CENTRAL COAST

CITY           SKY/WX    TMP DP  RH WIND       PRES   REMARKS
WATSONVILLE    CLEAR     59  54  83 CALM      30.13R
SALINAS        CLEAR     57  51  80 W10       30.14S
MONTEREY       CLEAR     56  50  80 SW8       30.16F
SAN LUIS OBISP CLEAR     59  49  69 W6        30.07R
SANTA MARIA    CLEAR     54  50  86 W5        30.06F
$$
CAZ015-016-300400-
NORTHERN SACRAMENTO VALLEY

CITY           SKY/WX    TMP DP  RH WIND       PRES   REMARKS
REDDING        CLOUDY    65  51  60 S5        30.04S
RED BLUFF      CLOUDY    66  53  63 E6        30.05F
OROVILLE       CLOUDY    66  53  63 E3        30.07F
$$
CAZ016>018-300400-
SOUTHERN SACRAMENTO VALLEY

CITY           SKY/WX    TMP DP  RH WIND       PRES   REMARKS
AUBURN         PTCLDY    63  48  59 NW3       30.11S
BEALE AFB      MOCLDY    65  58  79 CALM      30.04F
LINCOLN        FAIR      63  52  67 NW5       30.06S
MARYSVILLE     MOCLDY    66  54  65 CALM      30.06F
SAC INTL ARPT  PTCLDY    66  55  67 SW7       30.05F
MATHER AIRPORT PTCLDY    63  55  77 S6        30.06F
DOWNTOWN SAC   N/A       69  MM  MM MISG
SAC EXEC ARPT  PTCLDY    66  54  65 SW7       30.06F
VACAVILLE      PTCLDY    66  56  70 NW3       30.07S
TRAVIS AFB     PTCLDY    60  52  72 S8        30.05S
$$
CAZ019>021-300400-
SAN JOAQUIN VALLEY

CITY           SKY/WX    TMP DP  RH WIND       PRES   REMARKS
STOCKTON       PTCLDY    65  53  65 SW9       30.07S
MODESTO        PTCLDY    69  53  56 CALM      30.07R
MERCED         CLEAR     66  49  54 CALM      30.06F
LEMOORE        PTCLDY    63  47  55 N6        30.08F
FRESNO         PTCLDY    69  50  50 NW6       30.08S
HANFORD        CLEAR     62  55  77 CALM      30.07F
PORTERVILLE    PTCLDY    65  49  56 CALM      30.08F
BAKERSFIELD    CLEAR     68  46  45 NW6       30.08S
$$
CAZ011-012-071-300400-
NORTHERN MOUNTAINS

CITY           SKY/WX    TMP DP  RH WIND       PRES   REMARKS
YREKA          CLOUDY    50  48  93 E5        30.07F
MOUNT SHASTA   CLOUDY    49  46  90 CALM      30.07F
ALTURAS        CLOUDY    48  45  89 SW3       30.08F
$$
CAZ011-012-071-300400-
SIERRA NEVADA MTNS

CITY           SKY/WX    TMP DP  RH WIND       PRES   REMARKS
BLUE CANYON    CLOUDY    50  42  74 CALM      30.21S
TRUCKEE        PTCLDY    43  36  75 S3        30.20R
TAHOE VLY ARPT MOCLDY    49  38  65 SW6       30.19F
MAMMOTH LAKES  FAIR      51  32  48 NW6       30.23S
$$



USA.gov is the U.S. government's official web portal to all federal, state and local government web resources and services.